This is the latest recevied weather packets stored in our database for station/object AD5L. If no packets are shown the sender has not sent any weather packets the latest 1 day(s).
| Time | Temp. | Humidity | Pressure | Rain* | Wind** | Luminosity | Snow |
|---|---|---|---|---|---|---|---|
| 1777980812 | 21.67° C | 91% | 1007.1 hPa | 0 mm | 1.34 m/s, 160° | - | - |
| 1777980204 | 21.67° C | 91% | 1007.1 hPa | 0 mm | 2.24 m/s, 160° | - | - |
| 1777979614 | 21.67° C | 91% | 1007 hPa | 0 mm | 1.34 m/s, 139° | - | - |
| 1777979003 | 21.67° C | 91% | 1007 hPa | 0 mm | 1.34 m/s, 230° | - | - |
| 1777978414 | 21.67° C | 91% | 1007.2 hPa | 0 mm | 2.24 m/s, 257° | - | - |
| 1777977806 | 21.67° C | 90% | 1007.2 hPa | 0 mm | 1.79 m/s, 141° | - | - |
| 1777977217 | 21.67° C | 90% | 1007.2 hPa | 0 mm | 2.68 m/s, 181° | - | - |
| 1777976609 | 21.67° C | 90% | 1007.3 hPa | 0 mm | 1.34 m/s, 185° | - | - |
| 1777976019 | 21.67° C | 90% | 1007.6 hPa | 0 mm | 1.79 m/s, 188° | - | - |
| 1777975410 | 21.67° C | 90% | 1007.6 hPa | 0 mm | 1.79 m/s, 160° | - | - |
| 1777974823 | 21.67° C | 91% | 1007.6 hPa | 0 mm | 1.34 m/s, 172° | - | - |
| 1777974214 | 21.67° C | 91% | 1007.6 hPa | 0 mm | 1.34 m/s, 146° | - | - |
| 1777973625 | 21.67° C | 91% | 1007.7 hPa | 0 mm | 1.34 m/s, 120° | - | - |
| 1777973007 | 21.67° C | 90% | 1007.6 hPa | 0 mm | 1.34 m/s, 184° | - | - |
| 1777972428 | 21.67° C | 90% | 1007.7 hPa | 0 mm | 1.79 m/s, 237° | - | - |
| 1777971810 | 21.67° C | 90% | 1008 hPa | 0 mm | 2.68 m/s, 165° | - | - |
| 1777971230 | 21.67° C | 90% | 1007.8 hPa | 0 mm | 1.34 m/s, 150° | - | - |
| 1777970611 | 21.67° C | 90% | 1007.9 hPa | 0 mm | 1.79 m/s, 131° | - | - |
| 1777970003 | 21.67° C | 89% | 1007.9 hPa | 0 mm | 2.24 m/s, 114° | - | - |
| 1777969411 | 21.67° C | 89% | 1008 hPa | 0 mm | 1.34 m/s, 195° | - | - |
* Rain latest hour (hover to see other rain measurements)
** Current wind speed in m/s (hover to see current wind gust speed)